Wind_Speed
7 4 3 6 5 12 16 20 16 21 19 18 24 24 18 13 13 19 17 12 18 25 28 26 29 31 30 27 27 26 24 25 26 27 27 28 29 27 27 27 25 27 26 27
8 2 4 7 10 9 13 15 18 19 20 24 23 26 19 18 21 12 14 13 16 25 27 31 32 34 28 31 28 21 19 21 24 25 28 28 28 26 26 27 28 28 28 27
8 6 5 5 4 9 12 15 19 19 21 26 24 24 19 21 23 17 13 19 20 20 19 18 24 26 27 30 23 23 19 22 23 25 26 26 24 25 25 26 26 28 30 29
14 12 8 11 9 10 13 16 20 24 25 28 27 23 19 22 16 19 15 21 20 19 22 21 28 25 31 30 26 21 19 18 21 26 27 23 23 25 26 27 29 30 30 30
16 13 11 12 15 18 13 16 20 25 27 29 30 22 23 21 14 17 22 24 23 24 23 21 22 26 33 31 32 25 16 18 25 26 21 23 24 25 27 30 30 32 32 33
18 14 11 14 16 18 18 19 22 25 28 29 22 18 24 14 12 17 23 27 31 29 24 21 22 25 31 31 27 33 20 19 22 24 26 27 29 27 28 29 30 31 31 31
22 16 16 17 17 16 17 17 17 18 18 24 22 21 18 15 15 19 22 24 28 25 23 22 23 25 26 23 25 29 31 13 17 19 27 28 30 30 31 31 30 29 32 32
26 20 19 17 15 18 17 16 19 22 23 21 21 24 19 19 19 26 24 27 31 29 26 25 29 27 29 26 24 21 26 25 25 25 28 32 33 34 34 32 29 30 32 32
31 28 24 21 17 16 17 16 19 23 21 18 19 24 22 23 24 28 27 32 32 29 28 27 24 26 28 28 25 21 23 26 28 30 34 35 34 34 32 32 31 31 33 34
23 27 31 23 21 20 19 16 21 25 29 26 20 22 27 25 22 27 28 32 32 32 30 30 28 23 24 22 21 23 22 25 29 32 33 33 35 31 30 31 31 33 35 35
17 18 18 20 20 16 15 17 23 27 31 28 27 24 26 24 27 29 28 32 36 37 33 33 31 30 26 24 23 24 26 27 30 32 34 35 37 32 28 30 30 32 32 32
8 18 20 22 20 19 18 22 27 31 31 28 28 27 28 29 31 30 34 36 38 36 34 34 33 32 28 26 27 27 30 32 33 34 36 34 36 34 28 28 30 30 32 30
7 11 15 19 20 19 21 25 26 25 25 26 27 28 29 27 34 36 34 39 39 30 31 35 34 33 28 27 29 31 35 38 36 35 34 33 33 27 25 28 28 29 28 29
10 14 16 20 21 20 22 24 26 27 26 26 27 28 30 30 31 31 37 44 35 27 29 32 35 31 27 28 33 36 37 36 33 32 31 31 28 26 28 28 27 27 28 29
18 20 23 15 16 18 19 22 24 26 25 26 27 30 35 36 33 37 40 43 42 38 25 28 30 28 25 29 34 36 34 30 30 28 29 27 29 27 25 24 26 28 29 31
13 15 16 14 15 18 19 22 25 26 28 29 30 31 31 30 31 36 41 41 41 44 27 28 27 29 30 32 35 34 32 31 30 29 27 29 26 22 23 27 30 31 32 35
11 14 14 13 15 18 20 21 24 27 27 24 26 28 31 31 36 42 43 42 41 34 22 27 27 30 32 35 32 32 34 30 29 28 29 25 23 23 26 27 28 30 33 35
9 11 11 11 11 13 16 22 24 23 25 25 30 34 33 30 39 37 31 32 36 36 27 24 26 29 33 31 30 33 34 30 30 31 24 25 24 24 27 27 28 32 34 35
13 14 16 17 16 17 19 22 23 26 24 26 30 31 32 34 32 34 37 34 36 18 19 26 26 29 28 27 32 32 32 30 32 25 24 25 24 26 27 26 31 33 34 36
18 19 20 21 24 24 23 25 26 26 25 30 31 31 36 38 32 40 34 30 23 17 22 27 29 30 27 27 31 31 31 33 24 22 24 24 26 27 27 28 32 32 33 35
22 22 23 24 26 27 27 28 28 29 30 30 31 33 33 36 37 38 26 22 19 22 25 31 31 31 28 29 30 29 31 27 23 23 24 25 27 26 26 29 32 33 35 36
25 26 26 27 28 30 30 31 31 31 32 33 34 35 34 32 34 30 24 24 23 25 28 30 28 27 29 30 30 28 27 22 21 22 22 26 27 27 27 31 33 35 36 38
30 30 30 31 30 32 32 32 32 32 34 37 36 36 34 31 31 30 23 26 28 31 27 27 26 26 26 26 28 28 21 20 21 20 22 26 27 26 28 32 35 37 38 40
32 33 34 34 33 35 34 35 35 35 36 36 36 34 34 36 33 36 28 29 30 29 25 26 25 24 24 24 27 23 18 18 20 21 22 25 25 27 30 33 36 38 40 42
34 35 37 36 36 37 38 39 37 36 36 36 37 34 35 37 37 36 36 30 25 24 25 23 23 23 24 25 24 18 16 18 20 22 24 25 26 28 31 34 37 39 41 43
37 39 39 39 40 39 39 39 38 37 36 38 35 36 38 36 36 30 32 35 22 25 27 22 22 23 25 24 18 17 18 20 21 23 26 27 26 29 32 35 37 39 41 43
Wind_Direction
194 253 3 29 37 39 22 14 16 5 6 6 7 11 13 354 306 298 283 316 342 332 327 322 316 321 316 316 313 310 318 325 319 322 332 333 333 332 328 326 330 331 331 327
190 263 317 325 9 6 23 14 2 356 2 2 356 360 8 11 11 16 313 323 318 323 313 300 304 305 312 317 308 307 317 321 330 329 330 328 331 327 330 333 336 334 331 329
199 224 287 310 336 353 6 357 355 349 352 350 350 354 341 343 353 17 18 349 330 302 340 352 337 325 318 317 300 305 306 316 327 324 323 330 336 335 334 333 335 334 333 331
208 237 252 276 325 337 343 344 339 341 349 347 341 344 345 346 10 13 352 351 343 357 356 341 336 323 321 308 302 297 300 308 317 319 324 332 335 335 337 335 340 336 333 328
214 242 247 278 292 307 323 329 330 334 336 339 331 327 338 337 7 3 359 3 3 354 353 339 321 319 315 307 287 269 293 320 335 334 337 335 336 334 337 336 336 332 333 332
211 234 254 273 287 312 326 321 319 317 324 325 344 350 352 14 25 356 349 357 359 359 343 323 319 330 308 295 334 301 317 322 346 341 336 334 331 334 335 336 336 335 335 334
214 227 256 275 293 313 320 358 355 337 344 351 350 351 355 7 357 347 346 349 357 4 353 343 347 355 357 341 323 321 309 360 348 329 327 330 331 334 337 336 337 337 339 337
224 227 248 269 288 294 314 332 342 340 338 350 351 355 354 355 351 352 352 359 6 2 356 356 0 357 0 350 336 342 341 329 350 334 331 332 334 335 334 332 336 334 334 338
238 230 250 257 277 292 308 320 332 335 337 325 336 347 333 339 334 343 354 357 359 355 354 360 358 351 348 341 337 343 339 335 338 333 333 338 336 333 331 336 333 332 332 332
239 235 239 255 274 291 303 325 331 331 332 328 333 336 338 334 327 343 352 351 350 350 349 351 354 349 344 335 336 336 332 329 334 331 332 333 331 330 333 336 332 333 334 334
242 241 224 247 272 295 310 326 325 325 329 325 332 340 339 342 335 339 345 347 345 341 344 348 350 349 347 343 346 341 335 330 331 331 330 330 333 329 331 331 333 333 336 335
232 232 227 243 266 287 305 315 313 316 319 320 325 334 342 337 336 324 332 333 338 334 338 342 346 345 344 349 347 343 337 332 329 330 326 332 331 327 326 330 334 336 335 335
284 274 273 269 275 288 300 299 304 311 314 315 318 324 330 333 334 328 322 331 332 327 331 337 342 338 343 350 348 344 339 336 328 324 325 330 330 329 331 333 338 339 342 342
284 292 290 286 286 289 294 301 303 306 312 315 318 321 320 330 331 331 329 330 328 319 327 332 336 340 337 338 338 336 336 334 325 323 325 326 335 336 338 340 342 346 346 345
292 296 296 289 280 282 289 295 297 307 312 311 319 325 319 323 326 323 328 329 323 311 320 331 333 338 331 339 341 339 339 336 328 328 331 334 337 340 341 349 352 349 346 344
278 270 276 287 298 299 295 301 305 307 314 324 326 327 325 321 320 325 328 321 322 324 304 319 325 333 335 340 339 338 338 336 333 331 340 335 342 346 348 351 351 348 345 342
257 262 277 289 302 307 305 301 299 307 318 321 324 329 331 331 335 327 317 326 319 322 308 309 322 325 333 337 335 336 337 338 337 337 337 344 350 348 348 347 346 343 342 342
275 291 307 315 316 312 304 306 306 311 308 308 316 325 326 322 326 333 318 328 318 312 295 305 315 325 327 335 339 336 339 337 337 338 338 341 349 350 346 343 344 343 343 341
298 302 308 313 313 315 319 313 315 310 317 314 320 322 321 327 322 322 323 322 312 303 314 307 318 321 325 333 334 336 335 338 339 335 337 341 347 345 343 344 344 344 342 342
289 298 305 310 313 317 317 313 312 311 320 319 318 319 316 316 309 320 324 316 297 312 315 310 315 318 327 331 331 336 334 336 335 337 341 342 344 344 342 342 342 342 342 342
286 292 298 303 308 309 308 307 312 316 318 313 314 314 316 315 311 321 317 316 308 318 311 311 313 322 327 332 330 330 330 333 332 340 342 341 340 341 342 341 342 343 344 342
282 286 291 295 300 300 303 307 309 310 310 308 312 315 312 310 314 318 313 303 307 312 305 304 311 319 322 327 325 326 328 329 332 338 341 337 341 343 342 343 344 343 343 343
283 288 291 296 300 301 302 303 304 304 306 309 313 313 314 310 310 308 308 302 294 304 297 306 314 319 321 324 322 323 324 327 331 335 336 339 342 340 343 344 344 344 345 346
285 289 290 295 298 298 300 300 300 302 304 308 312 310 314 312 310 309 306 304 296 295 301 308 312 318 319 320 319 315 323 326 329 329 334 340 340 342 344 344 343 344 345 344
286 290 292 294 296 296 296 296 297 300 303 305 310 311 312 310 309 310 305 292 285 292 300 305 313 316 319 317 313 314 325 328 328 328 331 338 340 342 342 341 342 342 343 345
288 289 290 292 292 294 293 295 298 302 305 308 310 311 312 307 308 314 307 271 292 299 292 306 311 317 313 312 308 319 329 330 329 329 327 332 338 339 339 336 338 341 343 345
Height
5950 5949 5947 5946 5944 5943 5942 5941 5939 5937 5935 5933 5930 5928 5925 5923 5921 5917 5912 5911 5908 5902 5898 5896 5891 5889 5887 5883 5878 5873 5870 5866 5861 5856 5852 5846 5841 5836 5831 5826 5820 5817 5813 5808
5950 5949 5948 5947 5946 5944 5942 5941 5940 5938 5936 5933 5930 5927 5923 5920 5919 5914 5914 5912 5909 5904 5897 5892 5889 5884 5882 5879 5872 5868 5865 5861 5856 5852 5848 5843 5838 5833 5828 5823 5817 5813 5809 5804
5949 5948 5948 5948 5947 5945 5943 5941 5940 5939 5936 5933 5931 5929 5925 5922 5918 5915 5913 5912 5907 5903 5897 5892 5885 5880 5877 5872 5865 5860 5859 5855 5851 5847 5843 5840 5834 5830 5825 5820 5812 5809 5805 5801
5948 5947 5948 5948 5946 5945 5943 5941 5939 5937 5935 5933 5929 5929 5925 5922 5920 5918 5915 5909 5905 5900 5894 5889 5882 5876 5872 5866 5860 5854 5852 5847 5845 5843 5839 5835 5830 5825 5820 5816 5810 5805 5801 5796
5947 5946 5947 5946 5945 5944 5942 5940 5939 5936 5934 5933 5929 5926 5923 5919 5919 5916 5913 5908 5903 5897 5891 5885 5878 5875 5868 5861 5854 5843 5846 5845 5843 5842 5836 5832 5826 5821 5817 5812 5805 5802 5796 5791
5945 5945 5946 5945 5944 5944 5941 5939 5938 5936 5934 5932 5928 5925 5921 5918 5918 5915 5910 5905 5900 5894 5888 5881 5876 5870 5862 5855 5852 5845 5841 5841 5842 5839 5835 5829 5824 5819 5813 5806 5801 5797 5791 5786
5944 5945 5945 5944 5944 5943 5941 5938 5937 5936 5933 5929 5926 5924 5920 5919 5916 5913 5909 5905 5900 5894 5887 5881 5874 5866 5859 5854 5850 5845 5842 5835 5840 5838 5833 5826 5821 5814 5808 5802 5797 5792 5788 5782
5941 5944 5943 5942 5943 5942 5940 5938 5936 5933 5931 5930 5926 5923 5921 5918 5915 5911 5906 5901 5896 5891 5884 5880 5871 5864 5859 5854 5850 5846 5843 5840 5837 5834 5829 5822 5816 5811 5804 5799 5793 5789 5784 5778
5939 5942 5941 5941 5941 5941 5938 5936 5935 5932 5929 5928 5926 5923 5919 5916 5912 5908 5903 5898 5893 5889 5883 5878 5872 5865 5859 5853 5848 5844 5840 5837 5833 5829 5823 5817 5812 5806 5800 5794 5789 5785 5780 5775
5934 5937 5939 5940 5939 5940 5937 5935 5932 5929 5926 5923 5922 5920 5916 5912 5909 5904 5900 5894 5889 5885 5880 5875 5869 5863 5858 5852 5847 5841 5839 5835 5832 5826 5819 5814 5808 5802 5796 5791 5786 5781 5775 5770
5931 5934 5938 5938 5938 5937 5935 5932 5929 5927 5925 5920 5917 5918 5914 5910 5906 5901 5897 5891 5886 5880 5876 5871 5866 5861 5855 5850 5845 5841 5837 5831 5828 5822 5816 5810 5803 5799 5793 5788 5783 5777 5771 5766
5931 5933 5935 5935 5934 5933 5931 5929 5927 5924 5922 5919 5916 5914 5911 5907 5903 5898 5894 5890 5884 5878 5874 5869 5863 5858 5853 5847 5842 5838 5834 5828 5822 5816 5812 5806 5800 5795 5790 5784 5778 5773 5767 5762
5931 5932 5932 5931 5931 5929 5927 5925 5923 5921 5919 5917 5914 5911 5907 5904 5901 5896 5891 5886 5881 5876 5871 5865 5860 5854 5850 5844 5839 5834 5829 5823 5817 5813 5809 5803 5798 5791 5786 5780 5774 5769 5763 5758
5928 5927 5927 5926 5924 5924 5922 5920 5919 5918 5916 5913 5911 5908 5903 5901 5898 5893 5888 5882 5876 5871 5868 5863 5856 5849 5845 5841 5835 5830 5824 5819 5815 5811 5806 5800 5794 5788 5782 5776 5770 5765 5760 5755
5926 5924 5922 5920 5919 5918 5918 5917 5916 5915 5913 5911 5908 5904 5900 5897 5893 5888 5885 5879 5873 5867 5863 5857 5854 5848 5843 5837 5832 5826 5821 5817 5812 5807 5801 5796 5789 5783 5778 5773 5767 5761 5757 5751
5921 5920 5918 5917 5916 5916 5915 5914 5911 5909 5908 5906 5904 5900 5895 5891 5888 5883 5879 5874 5868 5860 5856 5853 5851 5846 5841 5833 5829 5824 5819 5814 5807 5802 5797 5792 5785 5780 5775 5769 5764 5759 5753 5747
5918 5917 5917 5917 5916 5914 5913 5911 5909 5907 5906 5904 5900 5895 5891 5887 5883 5877 5870 5863 5858 5854 5853 5850 5846 5842 5836 5830 5825 5821 5815 5809 5804 5798 5793 5788 5782 5777 5772 5767 5762 5756 5750 5745
5916 5915 5915 5915 5914 5913 5912 5909 5907 5905 5902 5898 5894 5890 5887 5883 5878 5870 5863 5859 5852 5848 5845 5843 5841 5835 5832 5825 5820 5816 5811 5806 5800 5794 5790 5785 5780 5774 5770 5765 5759 5753 5747 5742
5912 5912 5911 5911 5911 5911 5908 5905 5902 5899 5898 5893 5890 5885 5881 5877 5872 5866 5857 5852 5847 5841 5840 5839 5835 5831 5827 5820 5815 5810 5807 5801 5796 5792 5788 5783 5778 5772 5767 5761 5756 5750 5744 5737
5909 5909 5909 5907 5906 5904 5903 5900 5897 5894 5893 5888 5883 5879 5875 5870 5864 5859 5853 5846 5841 5839 5838 5834 5829 5827 5821 5816 5812 5807 5803 5798 5793 5789 5784 5780 5775 5769 5764 5758 5753 5747 5741 5734
5905 5905 5904 5902 5900 5899 5897 5894 5892 5890 5888 5882 5878 5874 5869 5864 5858 5853 5847 5842 5839 5837 5835 5831 5826 5821 5816 5811 5808 5802 5799 5794 5790 5784 5781 5777 5772 5766 5761 5756 5750 5743 5736 5729
5901 5900 5900 5898 5897 5894 5891 5889 5887 5884 5878 5874 5872 5868 5864 5858 5853 5848 5843 5840 5836 5832 5829 5825 5821 5817 5811 5807 5803 5799 5795 5790 5786 5781 5777 5774 5768 5762 5757 5752 5746 5740 5733 5725
5895 5894 5894 5894 5891 5887 5885 5882 5879 5875 5871 5867 5864 5859 5855 5851 5848 5843 5839 5834 5830 5827 5824 5820 5816 5812 5806 5802 5800 5795 5790 5787 5782 5777 5774 5770 5765 5759 5754 5748 5742 5736 5729 5721
5888 5887 5886 5886 5885 5880 5878 5875 5872 5869 5865 5862 5857 5853 5848 5844 5840 5836 5831 5826 5823 5822 5818 5814 5810 5806 5802 5799 5796 5792 5787 5783 5779 5776 5770 5766 5761 5756 5750 5744 5738 5731 5724 5717
5881 5880 5878 5877 5876 5873 5870 5866 5864 5861 5858 5854 5849 5846 5841 5836 5831 5828 5822 5818 5818 5816 5812 5808 5804 5801 5798 5795 5792 5788 5783 5779 5776 5773 5768 5761 5756 5750 5745 5740 5734 5727 5720 5712
5873 5871 5870 5868 5866 5864 5861 5858 5856 5853 5849 5845 5841 5837 5833 5828 5824 5820 5816 5810 5808 5808 5805 5801 5798 5795 5793 5789 5786 5782 5778 5774 5770 5767 5763 5757 5750 5745 5741 5736 5730 5722 5715 5707